Weather in Kyubyainde

Russia / Sakha (Yakutia) Republic     64°37′25″N   120°10′22″E
temp.,
°C
wind,
m/s
gust,
m/s
humid.,
%
clouds,
%
prec.,
mm/h
press.,
hPa
HPBL,
m
8 august, mon
mon800:00+8ssw23966 0.0 100257
03:00+8s2395100 0.0 100458
06:00+9sse249549 0.0 100595
09:00+14sse248198 0.0 1006386
12:00+17se226198 0.0 1006856
15:00+17se2368100 0.0 1006668
18:00+18e1270100 0.1 1006767
21:00+14e1189100 0.4 100711
9 august, tue
tue900:00+12n1193100 0.0 100710
03:00+11n2295100 0.0 100828
06:00+11nnw2695100 0.0 1009148
09:00+15n457847 0.0 1009392
12:00+18n455951 0.0 1009912
15:00+20nnw445384 0.0 10101331
18:00+19nnw455736 0.0 10101243
21:00+14nnw22805 0.0 101028
10 august, wed
wed1000:00+11nw22905 0.0 101033
03:00+10nw229355 0.0 101035
06:00+10nw259044 0.0 1010107
09:00+16nnw346688 0.0 1009380
12:00+20nnw445398 0.0 10081118
15:00+21nnw344922 0.0 10071539
18:00+21nnw345322 0.0 10061608
21:00+16nw22776 0.0 100619
11 august, thu
thu1100:00+13wnw22856 0.0 100628
03:00+12wnw22905 0.0 100517
06:00+13w248663 0.0 100565
09:00+19wnw346352 0.0 1004380
12:00+20wnw445871 0.0 1004797
15:00+21w445435 0.0 1004986
18:00+21wnw44555 0.0 10031177
21:00+16w34859 0.0 100364
12 august, fri
fri1200:00+15wnw248578 0.0 100371
03:00+15w2481100 0.0 100390
06:00+15w2481100 0.0 100394
09:00+17w2470100 0.0 1003200
12:00+20w345396 0.0 1003591
15:00+21wnw334986 0.0 10031192
18:00+20w3359100 0.0 1003728
21:00+16w228154 0.0 100313